When you browse on this site, cookies collect data to enhance your experience and personalize the content and advertising you see.
Visit our Privacy Policy to learn more. By continuing to use the site, you agree to this use of cookies and data.
  • In United Kingdom
  • List of Countries
  • For 7 days
  • Water Temperature
  • Weather Map
  • Weather Widgets
  • user-avatar
    Login

    Hourly Weather Ghent

    Today, 23 February, Sunday

    Time Temperature Precipitation Wind Pressure Humidity
    00:00 +9°C° 0 mm 7 mps 766 mmHg 78%
    01:00 +8°C° 0.4 mm 7 mps 765 mmHg 80%
    02:00 +7°C° 0.4 mm 8 mps 764 mmHg 82%
    03:00 +7°C° 0.4 mm 8 mps 763 mmHg 84%
    04:00 +8°C° 0.3 mm 9 mps 762 mmHg 85%
    05:00 +9°C° 0.3 mm 10 mps 761 mmHg 85%
    06:00 +9°C° 0.3 mm 11 mps 760 mmHg 86%
    07:00 +10°C° 0 mm 12 mps 759 mmHg 82%
    08:00 +12°C° 0 mm 13 mps 759 mmHg 79%
    09:00 +13°C° 0 mm 14 mps 758 mmHg 76%
    10:00 +13°C° 0 mm 14 mps 758 mmHg 76%
    11:00 +13°C° 0 mm 14 mps 759 mmHg 76%
    12:00 +13°C° 0 mm 14 mps 759 mmHg 76%
    13:00 +12°C° 0.3 mm 13 mps 759 mmHg 77%
    14:00 +12°C° 0.3 mm 12 mps 760 mmHg 78%
    15:00 +11°C° 0.3 mm 11 mps 760 mmHg 80%
    16:00 +10°C° 0.3 mm 9 mps 761 mmHg 78%
    17:00 +9°C° 0.3 mm 7 mps 763 mmHg 76%
    18:00 +7°C° 0.3 mm 6 mps 764 mmHg 74%
    19:00 +7°C° 0 mm 5 mps 765 mmHg 73%
    20:00 +6°C° 0 mm 4 mps 766 mmHg 73%
    21:00 +5°C° 0 mm 3 mps 767 mmHg 73%
    22:00 +5°C° 0 mm 3 mps 767 mmHg 73%
    23:00 +6°C° 0 mm 2 mps 767 mmHg 73%

    Tomorrow, 24 February, Monday

    Time Temperature Precipitation Wind Pressure Humidity
    00:00 +5°C° 0 mm 2 mps 768 mmHg 73%
    01:00 +5°C° 0 mm 2 mps 767 mmHg 73%
    02:00 +5°C° 0 mm 2 mps 767 mmHg 73%
    03:00 +5°C° 0 mm 2 mps 766 mmHg 73%
    04:00 +6°C° 0 mm 2 mps 766 mmHg 74%
    05:00 +5°C° 0 mm 3 mps 765 mmHg 76%
    06:00 +5°C° 0 mm 4 mps 764 mmHg 78%
    07:00 +6°C° 0.2 mm 5 mps 763 mmHg 83%
    08:00 +7°C° 0.2 mm 5 mps 762 mmHg 88%
    09:00 +8°C° 0.2 mm 6 mps 761 mmHg 93%
    10:00 +9°C° 0.1 mm 7 mps 760 mmHg 89%
    11:00 +10°C° 0.1 mm 8 mps 759 mmHg 84%
    12:00 +11°C° 0.1 mm 10 mps 758 mmHg 79%
    13:00 +11°C° 0 mm 10 mps 757 mmHg 78%
    14:00 +11°C° 0 mm 10 mps 755 mmHg 78%
    15:00 +11°C° 0 mm 10 mps 754 mmHg 77%
    16:00 +9°C° 0.6 mm 11 mps 754 mmHg 79%
    17:00 +9°C° 0.6 mm 11 mps 753 mmHg 82%
    18:00 +9°C° 0.6 mm 11 mps 753 mmHg 84%
    19:00 +9°C° 0.4 mm 11 mps 752 mmHg 82%
    20:00 +9°C° 0.4 mm 10 mps 752 mmHg 81%
    21:00 +9°C° 0.4 mm 10 mps 752 mmHg 79%
    22:00 +8°C° 0 mm 10 mps 752 mmHg 76%
    23:00 +7°C° 0 mm 9 mps 752 mmHg 73%

    Day after tomorrow, 25 February, Tuesday

    Time Temperature Precipitation Wind Pressure Humidity
    00:00 +6°C° 0 mm 9 mps 753 mmHg 69%
    01:00 +5°C° 0 mm 8 mps 753 mmHg 68%
    02:00 +5°C° 0 mm 8 mps 753 mmHg 68%
    03:00 +4°C° 0 mm 8 mps 753 mmHg 67%
    04:00 +4°C° 0 mm 7 mps 753 mmHg 68%
    05:00 +3°C° 0 mm 6 mps 753 mmHg 69%
    06:00 +3°C° 0 mm 6 mps 753 mmHg 70%
    07:00 +3°C° 0 mm 7 mps 753 mmHg 68%
    08:00 +4°C° 0 mm 8 mps 753 mmHg 66%
    09:00 +5°C° 0 mm 9 mps 752 mmHg 63%
    10:00 +5°C° 0.1 mm 9 mps 752 mmHg 61%
    11:00 +6°C° 0.1 mm 9 mps 752 mmHg 58%
    12:00 +6°C° 0.1 mm 9 mps 752 mmHg 56%
    13:00 +6°C° 0 mm 9 mps 751 mmHg 55%
    14:00 +6°C° 0 mm 8 mps 751 mmHg 55%
    15:00 +6°C° 0 mm 8 mps 751 mmHg 54%
    16:00 +5°C° 0.1 mm 7 mps 750 mmHg 60%
    17:00 +4°C° 0.1 mm 6 mps 749 mmHg 66%
    18:00 +5°C° 0.1 mm 5 mps 749 mmHg 72%
    19:00 +3°C° 0.4 mm 5 mps 748 mmHg 77%
    20:00 +3°C° 0.4 mm 5 mps 747 mmHg 82%
    21:00 +3°C° 0.4 mm 5 mps 746 mmHg 87%
    22:00 +3°C° 1.6 mm 6 mps 745 mmHg 83%
    23:00 +2°C° 1.6 mm 7 mps 745 mmHg 79%

    26 February, Wednesday

    Time Temperature Precipitation Wind Pressure Humidity
    00:00 +1°C° 1.6 mm 8 mps 744 mmHg 75%
    01:00 0°C° 0.2 mm 8 mps 744 mmHg 74%
    02:00 0°C° 0.2 mm 8 mps 744 mmHg 73%
    03:00 0°C° 0.2 mm 8 mps 744 mmHg 72%
    04:00 0°C° 0.1 mm 8 mps 744 mmHg 73%
    05:00 -1°C° 0.1 mm 9 mps 745 mmHg 74%
    06:00 -1°C° 0.1 mm 9 mps 745 mmHg 75%
    07:00 -1°C° 1.3 mm 8 mps 746 mmHg 81%
    08:00 -1°C° 1.3 mm 8 mps 747 mmHg 87%
    09:00 -1°C° 1.3 mm 7 mps 748 mmHg 93%
    10:00 0°C° 0.6 mm 7 mps 749 mmHg 85%
    11:00 +2°C° 0.6 mm 8 mps 750 mmHg 77%
    12:00 +4°C° 0.6 mm 8 mps 751 mmHg 69%
    13:00 +4°C° 0 mm 8 mps 752 mmHg 67%
    14:00 +4°C° 0 mm 7 mps 752 mmHg 65%
    15:00 +4°C° 0 mm 7 mps 753 mmHg 63%
    16:00 +3°C° 0.1 mm 6 mps 754 mmHg 67%
    17:00 +3°C° 0.1 mm 5 mps 754 mmHg 71%
    18:00 +3°C° 0.1 mm 4 mps 755 mmHg 74%
    19:00 +3°C° 0.1 mm 4 mps 755 mmHg 75%
    20:00 +1°C° 0.1 mm 4 mps 756 mmHg 77%
    21:00 +1°C° 0.1 mm 4 mps 757 mmHg 78%
    22:00 +1°C° 0 mm 4 mps 757 mmHg 79%
    23:00 0°C° 0 mm 4 mps 757 mmHg 79%

    27 February, Thursday

    Time Temperature Precipitation Wind Pressure Humidity
    00:00 +1°C° 0 mm 3 mps 757 mmHg 80%
    01:00 +1°C° 0 mm 3 mps 757 mmHg 80%
    02:00 +1°C° 0 mm 3 mps 757 mmHg 80%
    03:00 -1°C° 0 mm 4 mps 757 mmHg 81%
    04:00 -1°C° 0 mm 4 mps 756 mmHg 80%
    05:00 0°C° 0 mm 5 mps 755 mmHg 79%
    06:00 -1°C° 0 mm 6 mps 754 mmHg 79%
    07:00 -1°C° 0.7 mm 7 mps 753 mmHg 84%
    08:00 -1°C° 0.7 mm 8 mps 751 mmHg 89%
    09:00 -2°C° 0.7 mm 10 mps 750 mmHg 95%
    10:00 0°C° 1.7 mm 10 mps 748 mmHg 94%
    11:00 0°C° 1.7 mm 10 mps 746 mmHg 93%
    12:00 +1°C° 1.7 mm 11 mps 744 mmHg 92%
    13:00 +3°C° 0.3 mm 10 mps 743 mmHg 90%
    14:00 +6°C° 0.3 mm 9 mps 742 mmHg 88%
    15:00 +8°C° 0.3 mm 9 mps 741 mmHg 85%
    16:00 +8°C° 0 mm 9 mps 742 mmHg 85%
    17:00 +7°C° 0 mm 9 mps 742 mmHg 84%
    18:00 +7°C° 0 mm 9 mps 743 mmHg 83%
    19:00 +6°C° 0.1 mm 9 mps 744 mmHg 81%
    20:00 +5°C° 0.1 mm 9 mps 746 mmHg 78%
    21:00 +3°C° 0.1 mm 9 mps 747 mmHg 76%
    22:00 +2°C° 0 mm 8 mps 748 mmHg 76%
    23:00 +3°C° 0 mm 7 mps 749 mmHg 76%

    28 February, Friday

    Time Temperature Precipitation Wind Pressure Humidity
    00:00 +2°C° 0 mm 6 mps 750 mmHg 77%
    01:00 +2°C° 0 mm 5 mps 750 mmHg 78%
    02:00 +1°C° 0 mm 5 mps 751 mmHg 80%
    03:00 +1°C° 0 mm 4 mps 751 mmHg 81%
    04:00 +1°C° 0 mm 4 mps 752 mmHg 83%
    05:00 +1°C° 0 mm 4 mps 752 mmHg 84%
    06:00 +1°C° 0 mm 3 mps 752 mmHg 86%
    07:00 +2°C° 0 mm 3 mps 752 mmHg 83%
    08:00 +3°C° 0 mm 3 mps 752 mmHg 80%
    09:00 +4°C° 0 mm 4 mps 753 mmHg 77%
    10:00 +5°C° 0 mm 4 mps 752 mmHg 74%
    11:00 +5°C° 0 mm 4 mps 752 mmHg 71%
    12:00 +6°C° 0 mm 5 mps 752 mmHg 68%
    13:00 +6°C° 0.1 mm 5 mps 751 mmHg 70%
    14:00 +6°C° 0.1 mm 5 mps 750 mmHg 73%
    15:00 +6°C° 0.1 mm 5 mps 749 mmHg 76%
    16:00 +6°C° 0.5 mm 5 mps 748 mmHg 80%
    17:00 +6°C° 0.5 mm 5 mps 747 mmHg 84%
    18:00 +5°C° 0.5 mm 5 mps 746 mmHg 89%
    19:00 +6°C° 2 mm 5 mps 744 mmHg 91%
    20:00 +6°C° 2 mm 5 mps 743 mmHg 93%
    21:00 +6°C° 2 mm 5 mps 741 mmHg 96%
    22:00 +7°C° 0.5 mm 5 mps 741 mmHg 93%
    23:00 +7°C° 0.5 mm 6 mps 740 mmHg 90%
    Show more